Tracking 23757 objects as of 26-Oct-2021
HD Live streaming from Space Station
objects crossing your sky now

IRIDIUM 33 DEB

Track IRIDIUM 33 DEB now!
10-day predictions


NORAD ID: 35618
Int'l Code: 1997-051QQ
Perigee: 727.3 km
Apogee: 774.6 km
Inclination: 86.3 °
Period: 99.7 minutes
Semi major axis: 7121 km
RCS: 0.0121 m2 (small)
Launch date: September 14, 1997
Source: United States (US)
Launch site: TYURATAM MISSILE AND SPACE COMPLEX (TTMTR)

Note: This is SATELLITE DEBRIS
aabbcc
Your satellite tracking list
Your tracking list is empty




NASA's NSSDC Master Catalog

Two Line Element Set (TLE):
1 35618U 97051QQ  21298.27403413  .00000412  00000-0  11273-3 0  9995
2 35618  86.3373 287.8756 0033240   7.4580 352.7108 14.44454509653778
Source of the keplerian elements: AFSPC